This demonstration page uses our WeatherBlox Daily Observations layout. Learn more.

Left ArrowRight Arrow

39.01783, -85.05884

Hourly Observations for March 18, 2021

Temp ( °F °C ) Dew Point ( °F °C ) Humidity (%) Winds ( mph kmh ) Pressure ( in mb ) Visibility ( mi km ) Precip ( " mm )
12:11 am 00:11 Cloudy with Light Rain 56 13.3 54 12.2 93 93 E 3 6 29.74 1007 3 5 0.06 1.52
12:52 am 00:52 Cloudy with Light Rain 56 13.3 54 12.2 93 93 E 7 11 29.72 1007 3 5 0.06 1.52
1:52 am 01:52 Cloudy with Mist and Fog 56 13.3 54 12.2 93 93 Calm 29.69 1005 5 8 0.00 0.00
2:41 am 02:41 Cloudy with Rain 56 13.3 53 11.7 90 90 E 9 15 29.68 1005 3 5 0.01 0.25
2:52 am 02:52 Cloudy with Heavy Rain 56 13.3 53 11.7 90 90 E 12 19 29.65 1004 3 4 0.05 1.27
2:58 am 02:58 Cloudy with Light Rain 56 13.3 53 11.7 90 90 E 10 17 29.67 1005 3 5 0.02 0.51
3:23 am 03:23 Cloudy 56 13.3 53 11.7 90 90 E 10 17 29.64 1004 7 11 0.04 1.02
3:52 am 03:52 Cloudy 56 13.3 53 11.7 90 90 ESE 9 15 29.60 1002 8 13 0.04 1.02
4:36 am 04:36 Cloudy with Mist and Fog 55 12.8 53 11.7 93 93 NE 3 6 29.62 1003 6 10 0.00 0.00
4:52 am 04:52 Cloudy with Mist and Fog 55 12.8 53 11.7 93 93 ENE 8 13 29.59 1002 6 10 0.00 0.00
5:12 am 05:12 Cloudy 55 12.8 53 11.7 93 93 NE 6 9 29.60 1002 7 11 0.00 0.00
5:52 am 05:52 Cloudy 55 12.8 53 11.7 93 93 E 8 13 29.58 1002 7 11 0.00 0.00
6:18 am 06:18 Cloudy with Mist and Fog 55 12.8 53 11.7 93 93 E 9 15 29.58 1002 4 6 0.00 0.00
6:39 am 06:39 Cloudy with Mist and Fog 55 12.8 53 11.7 93 93 E 9 15 29.58 1002 4 6 0.00 0.00
6:52 am 06:52 Cloudy with Mist and Fog 55 12.8 53 11.7 93 93 E 6 9 29.56 1001 3 5 0.00 0.00
7:25 am 07:25 Cloudy with Mist and Fog 56 13.3 53 11.7 90 90 E 6 9 29.57 1001 3 5 0.00 0.00
7:30 am 07:30 Cloudy with Mist and Fog 56 13.3 53 11.7 90 90 ENE 7 11 29.57 1001 2 2 0.00 0.00
7:52 am 07:52 Cloudy with Light Rain 55 12.8 53 11.7 93 93 Calm 29.55 1001 2 2 0.00 0.00
7:55 am 07:55 Cloudy with Light Rain 55 12.8 53 11.7 93 93 Calm 29.57 1001 1 1 0.00 0.00
8:39 am 08:39 Cloudy with Light Rain 55 12.8 53 11.7 93 93 ENE 9 15 29.55 1001 1 1 0.06 1.52
8:52 am 08:52 Cloudy with Rain 55 12.8 53 11.7 93 93 NNE 7 11 29.55 1001 1 1 0.08 2.03
9:17 am 09:17 Cloudy with Light Rain 55 12.8 53 11.7 93 93 NE 8 13 29.55 1001 1 1 0.06 1.52
9:39 am 09:39 Cloudy with Mist and Fog 56 13.3 54 12.2 93 93 E 7 11 29.56 1001 1 1 0.06 1.52
9:52 am 09:52 Cloudy with Mist and Fog 56 13.3 54 12.2 93 93 NE 6 9 29.56 1001 1 1 0.06 1.52
10:34 am 10:34 Cloudy with Light Rain 55 12.8 53 11.7 93 93 N 12 19 29.58 1002 1 2 0.05 1.27
10:52 am 10:52 Cloudy with Light Rain 54 12.2 52 11.1 93 93 NNE 14 22 29.57 1001 1 2 0.07 1.78
11:09 am 11:09 Cloudy with Rain 54 12.2 51 10.6 90 90 N 8 13 29.59 1002 1 2 0.03 0.76
11:12 am 11:12 Cloudy with Light Rain 54 12.2 52 11.1 93 93 N 9 15 29.59 1002 3 5 0.04 1.02
11:52 am 11:52 Cloudy with Light Rain 54 12.2 51 10.6 90 90 NNE 15 24 29.59 1002 7 11 0.04 1.02
12:52 pm 12:52 Cloudy 53 11.7 49 9.4 86 86 NNE 12 19 29.61 1003 10 16 0.00 0.00
1:52 pm 13:52 Cloudy 51 10.6 47 8.3 86 86 NNE 14 22 29.62 1003 10 16 0.00 0.00
2:52 pm 14:52 Cloudy 50 10 46 7.8 86 86 NNE 13 20 29.62 1003 10 16 0.00 0.00
3:06 pm 15:06 Cloudy 50 10 45 7.2 83 83 NNE 21 33 29.64 1004 10 16 0.00 0.00
3:52 pm 15:52 Cloudy 49 9.4 44 6.7 83 83 NNE 21 33 29.63 1003 10 16 0.00 0.00
4:52 pm 16:52 Cloudy 48 8.9 42 5.6 80 80 NNE 23 37 29.67 1005 10 16 0.00 0.00
5:37 pm 17:37 Cloudy 47 8.3 41 5 80 80 NNE 18 30 29.73 1007 10 16 0.00 0.00
5:52 pm 17:52 Cloudy 47 8.3 40 4.4 77 77 NE 21 33 29.71 1006 10 16 0.00 0.00
6:52 pm 18:52 Cloudy with Light Rain 44 6.7 38 3.3 79 79 NNE 20 31 29.76 1008 10 16 0.00 0.00
7:52 pm 19:52 Cloudy with Light Rain 42 5.6 38 3.3 85 85 N 20 31 29.79 1009 6 10 0.01 0.25
8:52 pm 20:52 Cloudy with Light Rain 41 5 37 2.8 86 86 NNE 25 41 29.83 1010 7 11 0.02 0.51
9:52 pm 21:52 Cloudy with Light Rain 41 5 36 2.2 82 82 NNE 25 41 29.88 1012 5 8 0.01 0.25
10:08 pm 22:08 Cloudy with Light Rain 41 5 36 2.2 82 82 NNE 25 41 29.92 1013 6 10 0.01 0.25
10:52 pm 22:52 Cloudy 41 5 34 1.1 76 76 N 25 41 29.91 1013 10 16 0.02 0.51
11:52 pm 23:52 Cloudy 41 5 32 0 70 70 NNE 22 35 29.95 1014 10 16 0.00 0.00

Powered by AerisWeather